Time,TemperatureF,DewpointF,PressureIn,WindDirection,WindDirectionDegrees,WindSpeedMPH,WindSpeedGustMPH,Humidity,HourlyPrecipIn,Conditions,Clouds,dailyrainin,SoftwareType,DateUTC
2013-03-19 00:03:00,42.1,36.8,30.12,North,-999,-999.0,-999.0,81,0.00,,,0.00,AD6XL-WX-0.1,2013-03-19 07:03:00,
2013-03-19 00:09:00,42.1,36.8,30.12,North,-999,-999.0,-999.0,81,0.00,,,0.00,AD6XL-WX-0.1,2013-03-19 07:09:00,
2013-03-19 00:14:00,42.1,36.9,30.11,North,-999,-999.0,-999.0,81,0.00,,,0.00,AD6XL-WX-0.1,2013-03-19 07:14:00,
2013-03-19 00:19:00,42.1,37.2,30.11,North,-999,-999.0,-999.0,82,0.00,,,0.00,AD6XL-WX-0.1,2013-03-19 07:19:00,
2013-03-19 00:24:00,42.0,37.2,30.11,North,-999,-999.0,-999.0,82,0.00,,,0.00,AD6XL-WX-0.1,2013-03-19 07:24:00,
2013-03-19 00:29:00,42.0,37.2,30.11,North,-999,-999.0,-999.0,83,0.00,,,0.00,AD6XL-WX-0.1,2013-03-19 07:29:00,
2013-03-19 00:34:00,42.1,37.3,30.11,North,-999,-999.0,-999.0,83,0.00,,,0.00,AD6XL-WX-0.1,2013-03-19 07:34:00,
2013-03-19 00:39:00,42.1,37.3,30.11,North,-999,-999.0,-999.0,83,0.00,,,0.00,AD6XL-WX-0.1,2013-03-19 07:39:00,
2013-03-19 00:44:00,42.1,37.4,30.11,North,-999,-999.0,-999.0,83,0.00,,,0.00,AD6XL-WX-0.1,2013-03-19 07:44:00,
2013-03-19 00:49:00,42.1,37.6,30.11,North,-999,-999.0,-999.0,84,0.00,,,0.00,AD6XL-WX-0.1,2013-03-19 07:49:00,
2013-03-19 00:54:00,42.1,37.7,30.10,North,-999,-999.0,-999.0,84,0.00,,,0.00,AD6XL-WX-0.1,2013-03-19 07:54:00,
2013-03-19 00:59:00,42.1,37.7,30.10,North,-999,-999.0,-999.0,84,0.00,,,0.00,AD6XL-WX-0.1,2013-03-19 07:59:00,
2013-03-19 01:04:00,42.2,37.8,30.10,North,-999,-999.0,-999.0,84,0.00,,,0.00,AD6XL-WX-0.1,2013-03-19 08:04:00,
2013-03-19 01:09:00,42.2,37.9,30.10,North,-999,-999.0,-999.0,84,0.00,,,0.00,AD6XL-WX-0.1,2013-03-19 08:09:00,
2013-03-19 01:14:00,42.1,37.8,30.10,North,-999,-999.0,-999.0,84,0.00,,,0.00,AD6XL-WX-0.1,2013-03-19 08:14:00,
2013-03-19 01:20:00,42.1,38.0,30.10,North,-999,-999.0,-999.0,85,0.00,,,0.00,AD6XL-WX-0.1,2013-03-19 08:20:00,
2013-03-19 01:25:00,42.0,38.0,30.10,North,-999,-999.0,-999.0,85,0.00,,,0.00,AD6XL-WX-0.1,2013-03-19 08:25:00,
2013-03-19 01:30:00,41.9,38.0,30.10,North,-999,-999.0,-999.0,86,0.00,,,0.00,AD6XL-WX-0.1,2013-03-19 08:30:00,
2013-03-19 01:35:00,41.8,37.9,30.10,North,-999,-999.0,-999.0,86,0.00,,,0.00,AD6XL-WX-0.1,2013-03-19 08:35:00,
2013-03-19 01:40:00,41.7,38.1,30.10,North,-999,-999.0,-999.0,86,0.00,,,0.00,AD6XL-WX-0.1,2013-03-19 08:40:00,
2013-03-19 01:45:00,41.7,37.8,30.10,North,-999,-999.0,-999.0,85,0.00,,,0.00,AD6XL-WX-0.1,2013-03-19 08:45:00,
2013-03-19 01:50:00,41.7,38.0,30.10,North,-999,-999.0,-999.0,86,0.00,,,0.00,AD6XL-WX-0.1,2013-03-19 08:50:00,
2013-03-19 01:55:00,41.7,37.9,30.10,North,-999,-999.0,-999.0,86,0.00,,,0.00,AD6XL-WX-0.1,2013-03-19 08:55:00,
2013-03-19 02:00:00,41.7,38.4,30.09,North,-999,-999.0,-999.0,88,0.00,,,0.00,AD6XL-WX-0.1,2013-03-19 09:00:00,
2013-03-19 02:05:00,41.7,38.5,30.09,North,-999,-999.0,-999.0,88,0.00,,,0.00,AD6XL-WX-0.1,2013-03-19 09:05:00,
2013-03-19 02:10:00,41.7,38.5,30.09,North,-999,-999.0,-999.0,88,0.00,,,0.00,AD6XL-WX-0.1,2013-03-19 09:10:00,
2013-03-19 02:15:00,41.7,38.3,30.09,North,-999,-999.0,-999.0,87,0.00,,,0.00,AD6XL-WX-0.1,2013-03-19 09:15:00,
2013-03-19 02:20:00,41.7,38.5,30.09,North,-999,-999.0,-999.0,88,0.00,,,0.00,AD6XL-WX-0.1,2013-03-19 09:20:00,
2013-03-19 02:25:00,41.6,38.6,30.09,North,-999,-999.0,-999.0,88,0.00,,,0.00,AD6XL-WX-0.1,2013-03-19 09:25:00,
2013-03-19 02:31:00,41.6,38.5,30.09,North,-999,-999.0,-999.0,88,0.00,,,0.00,AD6XL-WX-0.1,2013-03-19 09:31:00,
2013-03-19 02:36:00,41.5,38.4,30.09,North,-999,-999.0,-999.0,88,0.00,,,0.00,AD6XL-WX-0.1,2013-03-19 09:36:00,
2013-03-19 02:41:00,41.5,38.5,30.09,North,-999,-999.0,-999.0,88,0.00,,,0.00,AD6XL-WX-0.1,2013-03-19 09:41:00,
2013-03-19 02:46:00,41.5,38.4,30.09,North,-999,-999.0,-999.0,88,0.00,,,0.00,AD6XL-WX-0.1,2013-03-19 09:46:00,
2013-03-19 02:51:00,41.6,38.4,30.09,North,-999,-999.0,-999.0,88,0.00,,,0.00,AD6XL-WX-0.1,2013-03-19 09:51:00,
2013-03-19 02:56:00,41.6,38.7,30.09,North,-999,-999.0,-999.0,89,0.00,,,0.00,AD6XL-WX-0.1,2013-03-19 09:56:00,
2013-03-19 03:01:00,41.6,38.6,30.09,North,-999,-999.0,-999.0,89,0.00,,,0.00,AD6XL-WX-0.1,2013-03-19 10:01:00,
2013-03-19 03:06:00,41.5,38.5,30.09,North,-999,-999.0,-999.0,88,0.00,,,0.00,AD6XL-WX-0.1,2013-03-19 10:06:00,
2013-03-19 03:11:00,41.5,38.6,30.08,North,-999,-999.0,-999.0,89,0.00,,,0.00,AD6XL-WX-0.1,2013-03-19 10:11:00,
2013-03-19 03:16:00,41.5,38.6,30.08,North,-999,-999.0,-999.0,89,0.00,,,0.00,AD6XL-WX-0.1,2013-03-19 10:16:00,
2013-03-19 03:22:00,41.5,38.7,30.08,North,-999,-999.0,-999.0,89,0.00,,,0.00,AD6XL-WX-0.1,2013-03-19 10:22:00,
2013-03-19 03:27:00,41.5,38.6,30.07,North,-999,-999.0,-999.0,89,0.00,,,0.00,AD6XL-WX-0.1,2013-03-19 10:27:00,
2013-03-19 03:32:00,41.4,38.5,30.07,North,-999,-999.0,-999.0,89,0.00,,,0.00,AD6XL-WX-0.1,2013-03-19 10:32:00,
2013-03-19 03:37:00,41.4,38.5,30.07,North,-999,-999.0,-999.0,89,0.00,,,0.00,AD6XL-WX-0.1,2013-03-19 10:37:00,
2013-03-19 03:42:00,41.4,38.4,30.07,North,-999,-999.0,-999.0,89,0.00,,,0.00,AD6XL-WX-0.1,2013-03-19 10:42:00,
2013-03-19 03:47:00,41.3,38.5,30.07,North,-999,-999.0,-999.0,89,0.00,,,0.00,AD6XL-WX-0.1,2013-03-19 10:47:00,
2013-03-19 03:52:00,41.4,38.7,30.07,North,-999,-999.0,-999.0,90,0.00,,,0.00,AD6XL-WX-0.1,2013-03-19 10:52:00,
2013-03-19 03:57:00,41.4,38.8,30.07,North,-999,-999.0,-999.0,90,0.00,,,0.00,AD6XL-WX-0.1,2013-03-19 10:57:00,
2013-03-19 04:02:00,41.4,38.9,30.07,North,-999,-999.0,-999.0,90,0.00,,,0.00,AD6XL-WX-0.1,2013-03-19 11:02:00,
2013-03-19 04:07:00,41.3,38.8,30.06,North,-999,-999.0,-999.0,90,0.00,,,0.00,AD6XL-WX-0.1,2013-03-19 11:07:00,
2013-03-19 04:12:00,41.3,38.7,30.06,North,-999,-999.0,-999.0,90,0.00,,,0.00,AD6XL-WX-0.1,2013-03-19 11:12:00,
2013-03-19 04:17:00,41.2,38.7,30.06,North,-999,-999.0,-999.0,90,0.00,,,0.00,AD6XL-WX-0.1,2013-03-19 11:17:00,
2013-03-19 04:22:00,41.2,38.4,30.06,North,-999,-999.0,-999.0,89,0.00,,,0.00,AD6XL-WX-0.1,2013-03-19 11:22:00,
2013-03-19 04:28:00,41.2,38.4,30.06,North,-999,-999.0,-999.0,89,0.00,,,0.00,AD6XL-WX-0.1,2013-03-19 11:28:00,
2013-03-19 04:33:00,41.2,38.4,30.06,North,-999,-999.0,-999.0,89,0.00,,,0.00,AD6XL-WX-0.1,2013-03-19 11:33:00,
2013-03-19 04:38:00,41.2,38.3,30.06,North,-999,-999.0,-999.0,89,0.00,,,0.00,AD6XL-WX-0.1,2013-03-19 11:38:00,
2013-03-19 04:43:00,41.2,38.3,30.06,North,-999,-999.0,-999.0,89,0.00,,,0.00,AD6XL-WX-0.1,2013-03-19 11:43:00,
2013-03-19 04:48:00,41.2,38.3,30.06,North,-999,-999.0,-999.0,89,0.00,,,0.00,AD6XL-WX-0.1,2013-03-19 11:48:00,
2013-03-19 04:53:00,41.2,38.2,30.06,North,-999,-999.0,-999.0,89,0.00,,,0.00,AD6XL-WX-0.1,2013-03-19 11:53:00,
2013-03-19 04:58:00,41.2,38.3,30.06,North,-999,-999.0,-999.0,89,0.00,,,0.00,AD6XL-WX-0.1,2013-03-19 11:58:00,
2013-03-19 05:03:00,41.2,38.3,30.06,North,-999,-999.0,-999.0,89,0.00,,,0.00,AD6XL-WX-0.1,2013-03-19 12:03:00,
2013-03-19 05:08:00,41.2,38.3,30.06,North,-999,-999.0,-999.0,89,0.00,,,0.00,AD6XL-WX-0.1,2013-03-19 12:08:00,
2013-03-19 05:13:00,41.0,38.2,30.06,North,-999,-999.0,-999.0,89,0.00,,,0.00,AD6XL-WX-0.1,2013-03-19 12:13:00,
2013-03-19 05:18:00,40.9,38.1,30.06,North,-999,-999.0,-999.0,89,0.00,,,0.00,AD6XL-WX-0.1,2013-03-19 12:18:00,
2013-03-19 05:23:00,40.8,38.2,30.06,North,-999,-999.0,-999.0,90,0.00,,,0.00,AD6XL-WX-0.1,2013-03-19 12:23:00,
2013-03-19 05:28:00,40.6,38.0,30.06,North,-999,-999.0,-999.0,90,0.00,,,0.00,AD6XL-WX-0.1,2013-03-19 12:28:00,
2013-03-19 05:33:00,40.5,38.0,30.06,North,-999,-999.0,-999.0,90,0.00,,,0.00,AD6XL-WX-0.1,2013-03-19 12:33:00,
2013-03-19 05:39:00,40.3,37.9,30.06,North,-999,-999.0,-999.0,90,0.00,,,0.00,AD6XL-WX-0.1,2013-03-19 12:39:00,
2013-03-19 05:44:00,40.3,38.0,30.05,North,-999,-999.0,-999.0,91,0.00,,,0.00,AD6XL-WX-0.1,2013-03-19 12:44:00,
2013-03-19 05:49:00,40.3,38.4,30.05,North,-999,-999.0,-999.0,92,0.00,,,0.00,AD6XL-WX-0.1,2013-03-19 12:49:00,
2013-03-19 05:54:00,40.2,38.3,30.05,North,-999,-999.0,-999.0,92,0.00,,,0.00,AD6XL-WX-0.1,2013-03-19 12:54:00,
2013-03-19 05:59:00,40.2,38.0,30.05,North,-999,-999.0,-999.0,91,0.00,,,0.00,AD6XL-WX-0.1,2013-03-19 12:59:00,
2013-03-19 06:04:00,40.2,38.0,30.05,North,-999,-999.0,-999.0,91,0.00,,,0.00,AD6XL-WX-0.1,2013-03-19 13:04:00,
2013-03-19 06:09:00,40.2,37.9,30.05,North,-999,-999.0,-999.0,91,0.00,,,0.00,AD6XL-WX-0.1,2013-03-19 13:09:00,
2013-03-19 06:14:00,40.2,38.0,30.05,North,-999,-999.0,-999.0,91,0.00,,,0.00,AD6XL-WX-0.1,2013-03-19 13:14:00,
2013-03-19 06:19:00,40.2,38.0,30.05,North,-999,-999.0,-999.0,91,0.00,,,0.00,AD6XL-WX-0.1,2013-03-19 13:19:00,
2013-03-19 06:24:00,40.3,38.1,30.05,North,-999,-999.0,-999.0,91,0.00,,,0.00,AD6XL-WX-0.1,2013-03-19 13:24:00,
2013-03-19 06:29:00,40.3,38.1,30.05,North,-999,-999.0,-999.0,91,0.00,,,0.00,AD6XL-WX-0.1,2013-03-19 13:29:00,
2013-03-19 06:34:00,40.3,38.1,30.05,North,-999,-999.0,-999.0,91,0.00,,,0.00,AD6XL-WX-0.1,2013-03-19 13:34:00,
2013-03-19 06:39:00,40.3,38.1,30.05,North,-999,-999.0,-999.0,91,0.00,,,0.00,AD6XL-WX-0.1,2013-03-19 13:39:00,
2013-03-19 06:45:00,40.4,38.2,30.05,North,-999,-999.0,-999.0,91,0.00,,,0.00,AD6XL-WX-0.1,2013-03-19 13:45:00,
2013-03-19 06:50:00,40.4,38.2,30.05,North,-999,-999.0,-999.0,91,0.00,,,0.00,AD6XL-WX-0.1,2013-03-19 13:50:00,
2013-03-19 06:55:00,40.4,38.3,30.05,North,-999,-999.0,-999.0,91,0.00,,,0.00,AD6XL-WX-0.1,2013-03-19 13:55:00,
2013-03-19 07:00:00,40.4,38.3,30.05,North,-999,-999.0,-999.0,91,0.00,,,0.00,AD6XL-WX-0.1,2013-03-19 14:00:00,
2013-03-19 07:05:00,40.5,38.3,30.05,North,-999,-999.0,-999.0,91,0.00,,,0.00,AD6XL-WX-0.1,2013-03-19 14:05:00,
2013-03-19 07:10:00,40.6,38.5,30.05,North,-999,-999.0,-999.0,92,0.00,,,0.00,AD6XL-WX-0.1,2013-03-19 14:10:00,
2013-03-19 07:15:00,40.6,38.5,30.05,North,-999,-999.0,-999.0,92,0.00,,,0.00,AD6XL-WX-0.1,2013-03-19 14:15:00,
2013-03-19 07:20:00,40.6,38.5,30.05,North,-999,-999.0,-999.0,92,0.00,,,0.00,AD6XL-WX-0.1,2013-03-19 14:20:00,
2013-03-19 07:25:00,40.6,38.5,30.05,North,-999,-999.0,-999.0,92,0.00,,,0.00,AD6XL-WX-0.1,2013-03-19 14:25:00,
2013-03-19 07:30:00,40.7,38.5,30.05,North,-999,-999.0,-999.0,92,0.00,,,0.00,AD6XL-WX-0.1,2013-03-19 14:30:00,
2013-03-19 07:35:00,40.8,38.6,30.05,North,-999,-999.0,-999.0,91,0.00,,,0.00,AD6XL-WX-0.1,2013-03-19 14:35:00,
2013-03-19 07:40:00,40.8,38.7,30.05,North,-999,-999.0,-999.0,91,0.00,,,0.00,AD6XL-WX-0.1,2013-03-19 14:40:00,
2013-03-19 07:45:00,40.8,38.7,30.05,North,-999,-999.0,-999.0,91,0.00,,,0.00,AD6XL-WX-0.1,2013-03-19 14:45:00,
2013-03-19 07:50:00,40.8,38.7,30.05,North,-999,-999.0,-999.0,91,0.00,,,0.00,AD6XL-WX-0.1,2013-03-19 14:50:00,
2013-03-19 07:56:00,41.0,38.9,30.06,North,-999,-999.0,-999.0,92,0.00,,,0.00,AD6XL-WX-0.1,2013-03-19 14:56:00,
2013-03-19 08:01:00,41.2,39.0,30.05,North,-999,-999.0,-999.0,91,0.00,,,0.00,AD6XL-WX-0.1,2013-03-19 15:01:00,
2013-03-19 08:06:00,41.3,39.1,30.05,North,-999,-999.0,-999.0,91,0.00,,,0.00,AD6XL-WX-0.1,2013-03-19 15:06:00,
2013-03-19 08:11:00,41.5,39.2,30.05,North,-999,-999.0,-999.0,91,0.00,,,0.00,AD6XL-WX-0.1,2013-03-19 15:11:00,
2013-03-19 08:16:00,41.6,39.2,30.05,North,-999,-999.0,-999.0,91,0.00,,,0.00,AD6XL-WX-0.1,2013-03-19 15:16:00,
2013-03-19 08:21:00,41.7,39.3,30.04,North,-999,-999.0,-999.0,91,0.00,,,0.00,AD6XL-WX-0.1,2013-03-19 15:21:00,
2013-03-19 08:26:00,42.0,39.5,30.04,North,-999,-999.0,-999.0,90,0.00,,,0.00,AD6XL-WX-0.1,2013-03-19 15:26:00,
2013-03-19 08:31:00,42.1,39.6,30.04,North,-999,-999.0,-999.0,90,0.00,,,0.00,AD6XL-WX-0.1,2013-03-19 15:31:00,
2013-03-19 08:36:00,42.4,39.8,30.05,North,-999,-999.0,-999.0,90,0.00,,,0.00,AD6XL-WX-0.1,2013-03-19 15:36:00,
2013-03-19 08:41:00,42.5,39.7,30.04,North,-999,-999.0,-999.0,89,0.00,,,0.00,AD6XL-WX-0.1,2013-03-19 15:41:00,
2013-03-19 08:47:00,42.7,39.8,30.04,North,-999,-999.0,-999.0,89,0.00,,,0.00,AD6XL-WX-0.1,2013-03-19 15:47:00,
2013-03-19 08:52:00,43.0,40.0,30.04,North,-999,-999.0,-999.0,89,0.00,,,0.00,AD6XL-WX-0.1,2013-03-19 15:52:00,
2013-03-19 08:57:00,43.0,39.8,30.04,North,-999,-999.0,-999.0,88,0.00,,,0.00,AD6XL-WX-0.1,2013-03-19 15:57:00,
2013-03-19 09:02:00,43.0,39.7,30.04,North,-999,-999.0,-999.0,87,0.00,,,0.00,AD6XL-WX-0.1,2013-03-19 16:02:00,
2013-03-19 09:07:00,43.3,39.9,30.04,North,-999,-999.0,-999.0,87,0.00,,,0.00,AD6XL-WX-0.1,2013-03-19 16:07:00,
2013-03-19 09:12:00,43.5,39.9,30.04,North,-999,-999.0,-999.0,86,0.00,,,0.00,AD6XL-WX-0.1,2013-03-19 16:12:00,
2013-03-19 09:17:00,43.8,40.0,30.04,North,-999,-999.0,-999.0,86,0.00,,,0.00,AD6XL-WX-0.1,2013-03-19 16:17:00,
2013-03-19 09:22:00,43.9,40.1,30.04,North,-999,-999.0,-999.0,86,0.00,,,0.00,AD6XL-WX-0.1,2013-03-19 16:22:00,
2013-03-19 09:27:00,44.2,40.1,30.04,North,-999,-999.0,-999.0,85,0.00,,,0.00,AD6XL-WX-0.1,2013-03-19 16:27:00,
2013-03-19 09:32:00,44.2,40.1,30.04,North,-999,-999.0,-999.0,85,0.00,,,0.00,AD6XL-WX-0.1,2013-03-19 16:32:00,
2013-03-19 09:37:00,44.2,39.9,30.03,North,-999,-999.0,-999.0,84,0.00,,,0.00,AD6XL-WX-0.1,2013-03-19 16:37:00,
2013-03-19 09:43:00,44.5,40.2,30.04,North,-999,-999.0,-999.0,84,0.00,,,0.00,AD6XL-WX-0.1,2013-03-19 16:43:00,
2013-03-19 09:48:00,44.9,40.4,30.03,North,-999,-999.0,-999.0,84,0.00,,,0.00,AD6XL-WX-0.1,2013-03-19 16:48:00,
2013-03-19 09:53:00,45.0,40.3,30.03,North,-999,-999.0,-999.0,83,0.00,,,0.00,AD6XL-WX-0.1,2013-03-19 16:53:00,
2013-03-19 09:58:00,45.2,40.5,30.03,North,-999,-999.0,-999.0,83,0.00,,,0.00,AD6XL-WX-0.1,2013-03-19 16:58:00,
2013-03-19 10:03:00,45.3,40.0,30.03,North,-999,-999.0,-999.0,81,0.00,,,0.00,AD6XL-WX-0.1,2013-03-19 17:03:00,
2013-03-19 10:08:00,45.4,40.3,30.03,North,-999,-999.0,-999.0,82,0.00,,,0.00,AD6XL-WX-0.1,2013-03-19 17:08:00,
2013-03-19 10:13:00,45.7,40.5,30.03,North,-999,-999.0,-999.0,81,0.00,,,0.00,AD6XL-WX-0.1,2013-03-19 17:13:00,
2013-03-19 10:18:00,46.0,40.5,30.03,North,-999,-999.0,-999.0,80,0.00,,,0.00,AD6XL-WX-0.1,2013-03-19 17:18:00,
2013-03-19 10:23:00,46.2,40.5,30.03,North,-999,-999.0,-999.0,80,0.00,,,0.00,AD6XL-WX-0.1,2013-03-19 17:23:00,
2013-03-19 10:28:00,46.5,40.8,30.02,North,-999,-999.0,-999.0,80,0.00,,,0.00,AD6XL-WX-0.1,2013-03-19 17:28:00,
2013-03-19 10:33:00,46.4,40.6,30.02,North,-999,-999.0,-999.0,80,0.00,,,0.00,AD6XL-WX-0.1,2013-03-19 17:33:00,
2013-03-19 10:38:00,46.4,40.7,30.02,North,-999,-999.0,-999.0,80,0.00,,,0.00,AD6XL-WX-0.1,2013-03-19 17:38:00,
2013-03-19 10:43:00,46.4,40.7,30.02,North,-999,-999.0,-999.0,80,0.00,,,0.00,AD6XL-WX-0.1,2013-03-19 17:43:00,
2013-03-19 10:48:00,46.6,41.0,30.02,North,-999,-999.0,-999.0,80,0.00,,,0.00,AD6XL-WX-0.1,2013-03-19 17:48:00,
2013-03-19 10:54:00,47.0,41.6,30.03,North,-999,-999.0,-999.0,81,0.00,,,0.00,AD6XL-WX-0.1,2013-03-19 17:54:00,
2013-03-19 10:59:00,47.2,41.9,30.03,North,-999,-999.0,-999.0,81,0.00,,,0.00,AD6XL-WX-0.1,2013-03-19 17:59:00,
2013-03-19 11:04:00,47.5,41.9,30.03,North,-999,-999.0,-999.0,80,0.00,,,0.00,AD6XL-WX-0.1,2013-03-19 18:04:00,
2013-03-19 11:09:00,47.5,41.9,30.02,North,-999,-999.0,-999.0,80,0.00,,,0.00,AD6XL-WX-0.1,2013-03-19 18:09:00,
2013-03-19 11:14:00,47.7,42.3,30.02,North,-999,-999.0,-999.0,81,0.00,,,0.00,AD6XL-WX-0.1,2013-03-19 18:14:00,
2013-03-19 11:19:00,47.5,42.2,30.02,North,-999,-999.0,-999.0,81,0.00,,,0.00,AD6XL-WX-0.1,2013-03-19 18:19:00,
2013-03-19 11:24:00,47.6,42.4,30.02,North,-999,-999.0,-999.0,82,0.00,,,0.00,AD6XL-WX-0.1,2013-03-19 18:24:00,
2013-03-19 11:29:00,47.9,42.7,30.02,North,-999,-999.0,-999.0,82,0.00,,,0.00,AD6XL-WX-0.1,2013-03-19 18:29:00,
2013-03-19 11:34:00,47.9,42.5,30.01,North,-999,-999.0,-999.0,81,0.00,,,0.00,AD6XL-WX-0.1,2013-03-19 18:34:00,
2013-03-19 11:39:00,48.0,42.9,30.00,North,-999,-999.0,-999.0,82,0.00,,,0.00,AD6XL-WX-0.1,2013-03-19 18:39:00,
2013-03-19 11:44:00,48.2,43.3,30.00,North,-999,-999.0,-999.0,82,0.00,,,0.00,AD6XL-WX-0.1,2013-03-19 18:44:00,
2013-03-19 11:49:00,48.3,42.8,30.00,North,-999,-999.0,-999.0,81,0.00,,,0.00,AD6XL-WX-0.1,2013-03-19 18:49:00,
2013-03-19 11:54:00,48.4,42.6,30.00,North,-999,-999.0,-999.0,80,0.00,,,0.00,AD6XL-WX-0.1,2013-03-19 18:54:00,
2013-03-19 11:59:00,48.4,42.2,30.00,North,-999,-999.0,-999.0,79,0.00,,,0.00,AD6XL-WX-0.1,2013-03-19 18:59:00,
2013-03-19 12:05:00,48.7,42.5,30.00,North,-999,-999.0,-999.0,79,0.00,,,0.00,AD6XL-WX-0.1,2013-03-19 19:05:00,
2013-03-19 12:10:00,48.8,42.3,30.00,North,-999,-999.0,-999.0,78,0.00,,,0.00,AD6XL-WX-0.1,2013-03-19 19:10:00,
2013-03-19 12:15:00,48.7,42.3,30.00,North,-999,-999.0,-999.0,78,0.00,,,0.00,AD6XL-WX-0.1,2013-03-19 19:15:00,
2013-03-19 12:20:00,48.8,42.5,30.00,North,-999,-999.0,-999.0,78,0.00,,,0.00,AD6XL-WX-0.1,2013-03-19 19:20:00,
2013-03-19 12:25:00,49.0,42.9,30.00,North,-999,-999.0,-999.0,79,0.00,,,0.00,AD6XL-WX-0.1,2013-03-19 19:25:00,
2013-03-19 12:30:00,49.4,43.1,29.99,North,-999,-999.0,-999.0,78,0.00,,,0.00,AD6XL-WX-0.1,2013-03-19 19:30:00,
2013-03-19 12:35:00,49.6,42.9,29.99,North,-999,-999.0,-999.0,77,0.00,,,0.00,AD6XL-WX-0.1,2013-03-19 19:35:00,
2013-03-19 12:40:00,49.6,42.9,29.98,North,-999,-999.0,-999.0,77,0.00,,,0.00,AD6XL-WX-0.1,2013-03-19 19:40:00,
2013-03-19 12:45:00,49.8,43.0,29.98,North,-999,-999.0,-999.0,77,0.00,,,0.00,AD6XL-WX-0.1,2013-03-19 19:45:00,
2013-03-19 12:50:00,50.0,42.8,29.98,North,-999,-999.0,-999.0,76,0.00,,,0.00,AD6XL-WX-0.1,2013-03-19 19:50:00,
2013-03-19 12:55:00,50.6,43.4,29.99,North,-999,-999.0,-999.0,76,0.00,,,0.00,AD6XL-WX-0.1,2013-03-19 19:55:00,
2013-03-19 13:00:00,51.0,43.2,29.97,North,-999,-999.0,-999.0,74,0.00,,,0.00,AD6XL-WX-0.1,2013-03-19 20:00:00,
2013-03-19 13:06:00,51.2,43.5,29.97,North,-999,-999.0,-999.0,74,0.00,,,0.00,AD6XL-WX-0.1,2013-03-19 20:06:00,
2013-03-19 13:11:00,51.4,43.6,29.97,North,-999,-999.0,-999.0,74,0.00,,,0.00,AD6XL-WX-0.1,2013-03-19 20:11:00,
2013-03-19 13:16:00,51.6,43.7,29.98,North,-999,-999.0,-999.0,74,0.00,,,0.00,AD6XL-WX-0.1,2013-03-19 20:16:00,
2013-03-19 13:21:00,51.5,43.8,29.97,North,-999,-999.0,-999.0,74,0.00,,,0.00,AD6XL-WX-0.1,2013-03-19 20:21:00,
2013-03-19 13:26:00,51.3,43.6,29.97,North,-999,-999.0,-999.0,74,0.00,,,0.00,AD6XL-WX-0.1,2013-03-19 20:26:00,
2013-03-19 13:31:00,51.1,43.4,29.96,North,-999,-999.0,-999.0,75,0.00,,,0.00,AD6XL-WX-0.1,2013-03-19 20:31:00,
2013-03-19 13:36:00,50.9,43.4,29.96,North,-999,-999.0,-999.0,75,0.00,,,0.00,AD6XL-WX-0.1,2013-03-19 20:36:00,
2013-03-19 13:42:00,51.1,43.6,29.97,North,-999,-999.0,-999.0,75,0.00,,,0.00,AD6XL-WX-0.1,2013-03-19 20:42:00,
2013-03-19 13:47:00,51.1,43.5,29.97,North,-999,-999.0,-999.0,75,0.00,,,0.00,AD6XL-WX-0.1,2013-03-19 20:47:00,
2013-03-19 13:52:00,50.9,43.7,29.96,North,-999,-999.0,-999.0,76,0.00,,,0.00,AD6XL-WX-0.1,2013-03-19 20:52:00,
2013-03-19 13:57:00,50.9,43.7,29.95,North,-999,-999.0,-999.0,76,0.00,,,0.00,AD6XL-WX-0.1,2013-03-19 20:57:00,
2013-03-19 14:02:00,51.0,43.7,29.95,North,-999,-999.0,-999.0,76,0.00,,,0.00,AD6XL-WX-0.1,2013-03-19 21:02:00,
2013-03-19 14:07:00,51.1,43.8,29.94,North,-999,-999.0,-999.0,76,0.00,,,0.00,AD6XL-WX-0.1,2013-03-19 21:07:00,
2013-03-19 14:12:00,51.3,43.8,29.94,North,-999,-999.0,-999.0,75,0.00,,,0.00,AD6XL-WX-0.1,2013-03-19 21:12:00,
2013-03-19 14:17:00,51.6,43.7,29.93,North,-999,-999.0,-999.0,74,0.00,,,0.00,AD6XL-WX-0.1,2013-03-19 21:17:00,
2013-03-19 14:22:00,52.0,43.7,29.93,North,-999,-999.0,-999.0,73,0.00,,,0.00,AD6XL-WX-0.1,2013-03-19 21:22:00,
2013-03-19 14:27:00,52.4,43.9,29.92,North,-999,-999.0,-999.0,72,0.00,,,0.00,AD6XL-WX-0.1,2013-03-19 21:27:00,
2013-03-19 14:32:00,52.7,43.7,29.92,North,-999,-999.0,-999.0,71,0.00,,,0.00,AD6XL-WX-0.1,2013-03-19 21:32:00,
2013-03-19 14:37:00,52.9,43.6,29.92,North,-999,-999.0,-999.0,70,0.00,,,0.00,AD6XL-WX-0.1,2013-03-19 21:37:00,
2013-03-19 14:42:00,53.1,44.1,29.92,North,-999,-999.0,-999.0,71,0.00,,,0.00,AD6XL-WX-0.1,2013-03-19 21:42:00,
2013-03-19 14:48:00,53.2,44.0,29.91,North,-999,-999.0,-999.0,70,0.00,,,0.00,AD6XL-WX-0.1,2013-03-19 21:48:00,
2013-03-19 14:53:00,53.2,43.8,29.91,North,-999,-999.0,-999.0,70,0.00,,,0.00,AD6XL-WX-0.1,2013-03-19 21:53:00,
2013-03-19 14:58:00,52.9,43.5,29.91,North,-999,-999.0,-999.0,70,0.00,,,0.00,AD6XL-WX-0.1,2013-03-19 21:58:00,
2013-03-19 15:03:00,52.8,43.7,29.91,North,-999,-999.0,-999.0,71,0.00,,,0.00,AD6XL-WX-0.1,2013-03-19 22:03:00,
2013-03-19 15:08:00,52.8,44.0,29.90,North,-999,-999.0,-999.0,71,0.00,,,0.00,AD6XL-WX-0.1,2013-03-19 22:08:00,
2013-03-19 15:13:00,52.8,43.9,29.90,North,-999,-999.0,-999.0,71,0.00,,,0.00,AD6XL-WX-0.1,2013-03-19 22:13:00,
2013-03-19 15:18:00,52.7,44.0,29.90,North,-999,-999.0,-999.0,72,0.00,,,0.00,AD6XL-WX-0.1,2013-03-19 22:18:00,
2013-03-19 15:23:00,52.5,44.0,29.90,North,-999,-999.0,-999.0,72,0.00,,,0.00,AD6XL-WX-0.1,2013-03-19 22:23:00,
2013-03-19 15:28:00,52.3,44.0,29.89,North,-999,-999.0,-999.0,73,0.00,,,0.00,AD6XL-WX-0.1,2013-03-19 22:28:00,
2013-03-19 15:33:00,52.0,44.0,29.89,North,-999,-999.0,-999.0,73,0.00,,,0.00,AD6XL-WX-0.1,2013-03-19 22:33:00,
2013-03-19 15:39:00,51.8,44.2,29.90,North,-999,-999.0,-999.0,75,0.00,,,0.00,AD6XL-WX-0.1,2013-03-19 22:39:00,
2013-03-19 15:44:00,51.6,44.5,29.90,North,-999,-999.0,-999.0,76,0.01,,,0.01,AD6XL-WX-0.1,2013-03-19 22:44:00,
2013-03-19 15:49:00,51.3,44.8,29.90,North,-999,-999.0,-999.0,78,0.01,,,0.01,AD6XL-WX-0.1,2013-03-19 22:49:00,
2013-03-19 15:54:00,50.9,45.2,29.90,North,-999,-999.0,-999.0,80,0.01,,,0.01,AD6XL-WX-0.1,2013-03-19 22:54:00,
2013-03-19 15:59:00,50.5,45.2,29.90,North,-999,-999.0,-999.0,82,0.01,,,0.01,AD6XL-WX-0.1,2013-03-19 22:59:00,
2013-03-19 16:04:00,50.1,45.3,29.89,North,-999,-999.0,-999.0,83,0.02,,,0.02,AD6XL-WX-0.1,2013-03-19 23:04:00,
2013-03-19 16:09:00,49.7,45.8,29.88,North,-999,-999.0,-999.0,86,0.03,,,0.03,AD6XL-WX-0.1,2013-03-19 23:09:00,
2013-03-19 16:14:00,49.6,46.1,29.88,North,-999,-999.0,-999.0,87,0.04,,,0.04,AD6XL-WX-0.1,2013-03-19 23:14:00,
2013-03-19 16:19:00,49.4,46.0,29.88,North,-999,-999.0,-999.0,88,0.04,,,0.04,AD6XL-WX-0.1,2013-03-19 23:19:00,
2013-03-19 16:24:00,49.3,46.0,29.88,North,-999,-999.0,-999.0,88,0.05,,,0.05,AD6XL-WX-0.1,2013-03-19 23:24:00,
2013-03-19 16:29:00,49.3,46.2,29.88,North,-999,-999.0,-999.0,89,0.05,,,0.05,AD6XL-WX-0.1,2013-03-19 23:29:00,
2013-03-19 16:34:00,49.1,46.2,29.88,North,-999,-999.0,-999.0,89,0.06,,,0.06,AD6XL-WX-0.1,2013-03-19 23:34:00,
2013-03-19 16:39:00,48.9,46.0,29.88,North,-999,-999.0,-999.0,89,0.06,,,0.06,AD6XL-WX-0.1,2013-03-19 23:39:00,
2013-03-19 16:44:00,48.9,46.1,29.87,North,-999,-999.0,-999.0,90,0.06,,,0.07,AD6XL-WX-0.1,2013-03-19 23:44:00,
2013-03-19 16:50:00,48.7,46.0,29.87,North,-999,-999.0,-999.0,90,0.06,,,0.07,AD6XL-WX-0.1,2013-03-19 23:50:00,
2013-03-19 16:55:00,48.6,46.0,29.87,North,-999,-999.0,-999.0,90,0.07,,,0.08,AD6XL-WX-0.1,2013-03-19 23:55:00,
2013-03-19 17:00:00,48.4,45.9,29.87,North,-999,-999.0,-999.0,90,0.07,,,0.08,AD6XL-WX-0.1,2013-03-20 00:00:00,
2013-03-19 17:05:00,48.4,46.0,29.87,North,-999,-999.0,-999.0,91,0.06,,,0.08,AD6XL-WX-0.1,2013-03-20 00:05:00,
2013-03-19 17:10:00,48.3,46.1,29.86,North,-999,-999.0,-999.0,92,0.05,,,0.08,AD6XL-WX-0.1,2013-03-20 00:10:00,
2013-03-19 17:15:00,48.3,46.2,29.86,North,-999,-999.0,-999.0,92,0.05,,,0.09,AD6XL-WX-0.1,2013-03-20 00:15:00,
2013-03-19 17:20:00,48.2,46.2,29.85,North,-999,-999.0,-999.0,92,0.05,,,0.09,AD6XL-WX-0.1,2013-03-20 00:20:00,
2013-03-19 17:25:00,48.1,46.3,29.85,North,-999,-999.0,-999.0,93,0.05,,,0.10,AD6XL-WX-0.1,2013-03-20 00:25:00,
2013-03-19 17:30:00,48.0,46.2,29.84,North,-999,-999.0,-999.0,93,0.05,,,0.10,AD6XL-WX-0.1,2013-03-20 00:30:00,
2013-03-19 17:35:00,48.0,46.2,29.84,North,-999,-999.0,-999.0,93,0.04,,,0.10,AD6XL-WX-0.1,2013-03-20 00:35:00,
2013-03-19 17:40:00,48.0,46.3,29.84,North,-999,-999.0,-999.0,93,0.04,,,0.10,AD6XL-WX-0.1,2013-03-20 00:40:00,
2013-03-19 17:45:00,48.0,46.3,29.84,North,-999,-999.0,-999.0,93,0.04,,,0.11,AD6XL-WX-0.1,2013-03-20 00:45:00,
2013-03-19 17:50:00,48.0,46.3,29.83,North,-999,-999.0,-999.0,93,0.04,,,0.11,AD6XL-WX-0.1,2013-03-20 00:50:00,
2013-03-19 17:55:00,48.0,46.4,29.83,North,-999,-999.0,-999.0,94,0.04,,,0.12,AD6XL-WX-0.1,2013-03-20 00:55:00,
2013-03-19 18:00:00,48.0,46.4,29.82,North,-999,-999.0,-999.0,94,0.04,,,0.12,AD6XL-WX-0.1,2013-03-20 01:00:00,
2013-03-19 18:05:00,48.0,46.5,29.81,North,-999,-999.0,-999.0,94,0.04,,,0.12,AD6XL-WX-0.1,2013-03-20 01:05:00,
2013-03-19 18:10:00,47.9,46.5,29.81,North,-999,-999.0,-999.0,94,0.03,,,0.12,AD6XL-WX-0.1,2013-03-20 01:10:00,
2013-03-19 18:16:00,47.9,46.6,29.82,North,-999,-999.0,-999.0,95,0.04,,,0.13,AD6XL-WX-0.1,2013-03-20 01:16:00,
2013-03-19 18:21:00,47.9,46.8,29.82,North,-999,-999.0,-999.0,95,0.04,,,0.14,AD6XL-WX-0.1,2013-03-20 01:21:00,
2013-03-19 18:26:00,48.0,47.0,29.81,North,-999,-999.0,-999.0,96,0.05,,,0.15,AD6XL-WX-0.1,2013-03-20 01:26:00,
2013-03-19 18:31:00,47.8,46.7,29.80,North,-999,-999.0,-999.0,95,0.06,,,0.16,AD6XL-WX-0.1,2013-03-20 01:31:00,
2013-03-19 18:36:00,47.8,46.8,29.80,North,-999,-999.0,-999.0,96,0.06,,,0.16,AD6XL-WX-0.1,2013-03-20 01:36:00,
2013-03-19 18:42:00,47.8,46.8,29.80,North,-999,-999.0,-999.0,96,0.06,,,0.16,AD6XL-WX-0.1,2013-03-20 01:42:00,
2013-03-19 18:47:00,47.8,46.8,29.79,North,-999,-999.0,-999.0,96,0.06,,,0.17,AD6XL-WX-0.1,2013-03-20 01:47:00,
2013-03-19 18:52:00,47.8,46.9,29.79,North,-999,-999.0,-999.0,96,0.06,,,0.17,AD6XL-WX-0.1,2013-03-20 01:52:00,
2013-03-19 18:57:00,47.8,46.8,29.78,North,-999,-999.0,-999.0,96,0.05,,,0.17,AD6XL-WX-0.1,2013-03-20 01:57:00,
2013-03-19 19:02:00,47.7,46.7,29.78,North,-999,-999.0,-999.0,96,0.06,,,0.18,AD6XL-WX-0.1,2013-03-20 02:02:00,
2013-03-19 19:07:00,47.7,46.9,29.78,North,-999,-999.0,-999.0,96,0.06,,,0.18,AD6XL-WX-0.1,2013-03-20 02:07:00,
2013-03-19 19:12:00,47.7,47.0,29.78,North,-999,-999.0,-999.0,97,0.06,,,0.18,AD6XL-WX-0.1,2013-03-20 02:12:00,
2013-03-19 19:17:00,47.5,46.8,29.78,North,-999,-999.0,-999.0,97,0.05,,,0.18,AD6XL-WX-0.1,2013-03-20 02:17:00,
2013-03-19 19:22:00,47.5,46.9,29.77,North,-999,-999.0,-999.0,97,0.04,,,0.19,AD6XL-WX-0.1,2013-03-20 02:22:00,
2013-03-19 19:27:00,47.5,47.0,29.77,North,-999,-999.0,-999.0,98,0.04,,,0.19,AD6XL-WX-0.1,2013-03-20 02:27:00,
2013-03-19 19:32:00,47.4,46.9,29.76,North,-999,-999.0,-999.0,98,0.03,,,0.19,AD6XL-WX-0.1,2013-03-20 02:32:00,
2013-03-19 19:37:00,47.4,46.9,29.76,North,-999,-999.0,-999.0,98,0.03,,,0.19,AD6XL-WX-0.1,2013-03-20 02:37:00,
2013-03-19 19:42:00,47.4,47.0,29.76,North,-999,-999.0,-999.0,98,0.03,,,0.19,AD6XL-WX-0.1,2013-03-20 02:42:00,
2013-03-19 19:47:00,47.4,47.0,29.76,North,-999,-999.0,-999.0,98,0.02,,,0.19,AD6XL-WX-0.1,2013-03-20 02:47:00,
2013-03-19 19:53:00,47.3,46.9,29.75,North,-999,-999.0,-999.0,98,0.02,,,0.19,AD6XL-WX-0.1,2013-03-20 02:53:00,
2013-03-19 19:58:00,47.3,47.0,29.75,North,-999,-999.0,-999.0,98,0.02,,,0.19,AD6XL-WX-0.1,2013-03-20 02:58:00,
2013-03-19 20:03:00,47.3,46.9,29.75,North,-999,-999.0,-999.0,98,0.02,,,0.20,AD6XL-WX-0.1,2013-03-20 03:03:00,
2013-03-19 20:08:00,47.1,46.7,29.74,North,-999,-999.0,-999.0,98,0.02,,,0.20,AD6XL-WX-0.1,2013-03-20 03:08:00,
2013-03-19 20:13:00,47.1,46.6,29.74,North,-999,-999.0,-999.0,98,0.03,,,0.21,AD6XL-WX-0.1,2013-03-20 03:13:00,
2013-03-19 20:18:00,47.1,46.6,29.74,North,-999,-999.0,-999.0,98,0.03,,,0.22,AD6XL-WX-0.1,2013-03-20 03:18:00,
2013-03-19 20:23:00,47.1,46.7,29.74,North,-999,-999.0,-999.0,98,0.04,,,0.23,AD6XL-WX-0.1,2013-03-20 03:23:00,
2013-03-19 20:28:00,47.1,46.8,29.74,North,-999,-999.0,-999.0,98,0.05,,,0.24,AD6XL-WX-0.1,2013-03-20 03:28:00,
2013-03-19 20:33:00,47.0,46.7,29.73,North,-999,-999.0,-999.0,99,0.05,,,0.24,AD6XL-WX-0.1,2013-03-20 03:33:00,
2013-03-19 20:38:00,47.0,46.8,29.73,North,-999,-999.0,-999.0,99,0.06,,,0.25,AD6XL-WX-0.1,2013-03-20 03:38:00,
2013-03-19 20:43:00,46.9,46.8,29.73,North,-999,-999.0,-999.0,99,0.07,,,0.26,AD6XL-WX-0.1,2013-03-20 03:43:00,
2013-03-19 20:48:00,46.9,46.9,29.73,North,-999,-999.0,-999.0,99,0.07,,,0.26,AD6XL-WX-0.1,2013-03-20 03:48:00,
2013-03-19 20:53:00,46.9,46.8,29.73,North,-999,-999.0,-999.0,99,0.08,,,0.27,AD6XL-WX-0.1,2013-03-20 03:53:00,
2013-03-19 20:58:00,46.8,46.8,29.74,North,-999,-999.0,-999.0,99,0.08,,,0.27,AD6XL-WX-0.1,2013-03-20 03:58:00,
2013-03-19 21:00:00,46.8,46.8,29.74,North,-999,-999.0,-999.0,99,0.09,,,0.28,AD6XL-WX-0.1,2013-03-20 04:00:00,
2013-03-19 21:05:00,46.8,46.8,29.74,North,-999,-999.0,-999.0,99,0.10,,,0.30,AD6XL-WX-0.1,2013-03-20 04:05:00,
2013-03-19 21:10:00,46.7,46.7,29.74,North,-999,-999.0,-999.0,99,0.11,,,0.32,AD6XL-WX-0.1,2013-03-20 04:10:00,
2013-03-19 21:16:00,46.7,46.7,29.73,North,-999,-999.0,-999.0,99,0.12,,,0.34,AD6XL-WX-0.1,2013-03-20 04:16:00,
2013-03-19 21:21:00,46.7,46.7,29.73,North,-999,-999.0,-999.0,99,0.12,,,0.35,AD6XL-WX-0.1,2013-03-20 04:21:00,
2013-03-19 21:26:00,46.7,46.7,29.72,North,-999,-999.0,-999.0,99,0.14,,,0.37,AD6XL-WX-0.1,2013-03-20 04:26:00,
2013-03-19 21:31:00,46.6,46.6,29.72,North,-999,-999.0,-999.0,99,0.14,,,0.38,AD6XL-WX-0.1,2013-03-20 04:31:00,
2013-03-19 21:36:00,46.6,46.6,29.71,North,-999,-999.0,-999.0,100,0.13,,,0.38,AD6XL-WX-0.1,2013-03-20 04:36:00,
2013-03-19 21:41:00,46.7,46.7,29.71,North,-999,-999.0,-999.0,100,0.13,,,0.39,AD6XL-WX-0.1,2013-03-20 04:41:00,
2013-03-19 21:46:00,46.6,46.6,29.71,North,-999,-999.0,-999.0,99,0.14,,,0.40,AD6XL-WX-0.1,2013-03-20 04:46:00,
2013-03-19 21:51:00,46.6,46.6,29.70,North,-999,-999.0,-999.0,100,0.14,,,0.40,AD6XL-WX-0.1,2013-03-20 04:51:00,
2013-03-19 21:57:00,46.6,46.6,29.70,North,-999,-999.0,-999.0,100,0.13,,,0.40,AD6XL-WX-0.1,2013-03-20 04:57:00,
2013-03-19 22:02:00,46.7,46.7,29.70,North,-999,-999.0,-999.0,100,0.11,,,0.40,AD6XL-WX-0.1,2013-03-20 05:02:00,
2013-03-19 22:07:00,46.7,46.7,29.69,North,-999,-999.0,-999.0,100,0.10,,,0.40,AD6XL-WX-0.1,2013-03-20 05:07:00,
2013-03-19 22:12:00,46.8,46.8,29.69,North,-999,-999.0,-999.0,100,0.07,,,0.40,AD6XL-WX-0.1,2013-03-20 05:12:00,
2013-03-19 22:17:00,46.9,46.9,29.69,North,-999,-999.0,-999.0,100,0.06,,,0.40,AD6XL-WX-0.1,2013-03-20 05:17:00,
2013-03-19 22:22:00,47.0,47.0,29.69,North,-999,-999.0,-999.0,100,0.04,,,0.40,AD6XL-WX-0.1,2013-03-20 05:22:00,
2013-03-19 22:27:00,47.1,47.1,29.69,North,-999,-999.0,-999.0,100,0.03,,,0.40,AD6XL-WX-0.1,2013-03-20 05:27:00,
2013-03-19 22:32:00,47.1,47.1,29.69,North,-999,-999.0,-999.0,100,0.02,,,0.40,AD6XL-WX-0.1,2013-03-20 05:32:00,
2013-03-19 22:37:00,47.3,47.3,29.69,North,-999,-999.0,-999.0,100,0.01,,,0.40,AD6XL-WX-0.1,2013-03-20 05:37:00,
2013-03-19 22:42:00,47.3,47.3,29.70,North,-999,-999.0,-999.0,100,0.03,,,0.42,AD6XL-WX-0.1,2013-03-20 05:42:00,
2013-03-19 22:47:00,47.5,47.5,29.70,North,-999,-999.0,-999.0,100,0.04,,,0.44,AD6XL-WX-0.1,2013-03-20 05:47:00,
2013-03-19 22:52:00,47.5,47.5,29.70,North,-999,-999.0,-999.0,100,0.05,,,0.45,AD6XL-WX-0.1,2013-03-20 05:52:00,
2013-03-19 22:58:00,47.6,47.6,29.70,North,-999,-999.0,-999.0,100,0.06,,,0.46,AD6XL-WX-0.1,2013-03-20 05:58:00,
2013-03-19 23:03:00,47.6,47.6,29.69,North,-999,-999.0,-999.0,100,0.07,,,0.47,AD6XL-WX-0.1,2013-03-20 06:03:00,
2013-03-19 23:08:00,47.6,47.6,29.69,North,-999,-999.0,-999.0,100,0.08,,,0.48,AD6XL-WX-0.1,2013-03-20 06:08:00,
2013-03-19 23:13:00,47.6,47.6,29.68,North,-999,-999.0,-999.0,100,0.08,,,0.48,AD6XL-WX-0.1,2013-03-20 06:13:00,
2013-03-19 23:18:00,47.6,47.6,29.68,North,-999,-999.0,-999.0,100,0.08,,,0.48,AD6XL-WX-0.1,2013-03-20 06:18:00,
2013-03-19 23:23:00,47.7,47.7,29.68,North,-999,-999.0,-999.0,100,0.09,,,0.49,AD6XL-WX-0.1,2013-03-20 06:23:00,
2013-03-19 23:28:00,47.7,47.7,29.68,North,-999,-999.0,-999.0,100,0.11,,,0.51,AD6XL-WX-0.1,2013-03-20 06:28:00,
2013-03-19 23:33:00,47.8,47.8,29.68,North,-999,-999.0,-999.0,100,0.12,,,0.52,AD6XL-WX-0.1,2013-03-20 06:33:00,
2013-03-19 23:38:00,47.8,47.8,29.68,North,-999,-999.0,-999.0,100,0.12,,,0.52,AD6XL-WX-0.1,2013-03-20 06:38:00,
2013-03-19 23:43:00,47.9,47.9,29.68,North,-999,-999.0,-999.0,100,0.10,,,0.53,AD6XL-WX-0.1,2013-03-20 06:43:00,
2013-03-19 23:48:00,48.0,48.0,29.67,North,-999,-999.0,-999.0,100,0.10,,,0.54,AD6XL-WX-0.1,2013-03-20 06:48:00,
2013-03-19 23:53:00,48.0,48.0,29.68,North,-999,-999.0,-999.0,100,0.09,,,0.54,AD6XL-WX-0.1,2013-03-20 06:53:00,
2013-03-19 23:59:00,48.3,48.3,29.68,North,-999,-999.0,-999.0,100,0.09,,,0.55,AD6XL-WX-0.1,2013-03-20 06:59:00,